Time,TemperatureF,DewpointF,PressureIn,WindDirection,WindDirectionDegrees,WindSpeedMPH,WindSpeedGustMPH,Humidity,HourlyPrecipIn,Conditions,Clouds,dailyrainin,SoftwareType,DateUTC
2013-02-24 00:00:00,36.7,35.9,29.87,NE,56,10.0,13.0,97,0.05,,---,0.32,VWS V14.01,2013-02-24 05:00:00,
2013-02-24 00:05:00,36.8,36.0,29.87,ENE,68,5.0,7.0,97,0.04,,---,0.00,VWS V14.01,2013-02-24 05:05:00,
2013-02-24 00:10:00,36.8,36.0,29.87,ENE,58,9.0,9.0,97,0.05,,---,0.01,VWS V14.01,2013-02-24 05:10:00,
2013-02-24 00:15:00,36.9,36.1,29.86,ESE,104,5.0,10.0,97,0.06,,---,0.02,VWS V14.01,2013-02-24 05:15:00,
2013-02-24 00:20:00,36.9,36.1,29.86,NE,43,7.0,7.0,97,0.05,,---,0.02,VWS V14.01,2013-02-24 05:20:00,
2013-02-24 00:25:00,36.9,36.1,29.86,East,81,3.0,6.0,97,0.06,,---,0.03,VWS V14.01,2013-02-24 05:25:00,
2013-02-24 00:30:00,36.8,36.0,29.86,NE,49,5.0,6.0,97,0.07,,---,0.04,VWS V14.01,2013-02-24 05:30:00,
2013-02-24 00:35:00,36.7,35.9,29.86,ENE,74,7.0,10.0,97,0.06,,---,0.04,VWS V14.01,2013-02-24 05:35:00,
2013-02-24 00:40:00,36.7,35.9,29.85,NE,42,5.0,7.0,97,0.07,,---,0.05,VWS V14.01,2013-02-24 05:40:00,
2013-02-24 00:45:00,36.6,35.8,29.85,ENE,72,7.0,8.0,97,0.07,,---,0.06,VWS V14.01,2013-02-24 05:45:00,
2013-02-24 00:50:00,36.6,35.8,29.84,NE,42,12.0,12.0,97,0.07,,---,0.06,VWS V14.01,2013-02-24 05:50:00,
2013-02-24 00:55:00,36.8,36.0,29.83,NE,53,6.0,7.0,97,0.08,,---,0.07,VWS V14.01,2013-02-24 05:55:00,
2013-02-24 01:00:00,37.0,36.2,29.83,ESE,106,5.0,7.0,97,0.08,,---,0.08,VWS V14.01,2013-02-24 06:00:00,
2013-02-24 01:05:00,37.1,36.3,29.84,ENE,59,7.0,7.0,97,0.09,,---,0.09,VWS V14.01,2013-02-24 06:05:00,
2013-02-24 01:10:00,37.0,36.2,29.83,NNE,29,10.0,10.0,97,0.08,,---,0.09,VWS V14.01,2013-02-24 06:10:00,
2013-02-24 01:15:00,36.9,36.1,29.83,ENE,57,7.0,10.0,97,0.07,,---,0.09,VWS V14.01,2013-02-24 06:15:00,
2013-02-24 01:20:00,37.0,36.2,29.82,ENE,64,5.0,7.0,97,0.08,,---,0.10,VWS V14.01,2013-02-24 06:20:00,
2013-02-24 01:25:00,37.1,36.3,29.82,NE,45,7.0,7.0,97,0.07,,---,0.10,VWS V14.01,2013-02-24 06:25:00,
2013-02-24 01:30:00,37.2,36.4,29.82,NNE,24,3.0,11.0,97,0.07,,---,0.11,VWS V14.01,2013-02-24 06:30:00,
2013-02-24 01:35:00,37.2,36.4,29.81,NE,46,2.0,3.0,97,0.08,,---,0.12,VWS V14.01,2013-02-24 06:35:00,
2013-02-24 01:40:00,37.2,36.4,29.81,ENE,69,3.0,5.0,97,0.07,,---,0.12,VWS V14.01,2013-02-24 06:40:00,
2013-02-24 01:45:00,37.4,36.6,29.80,North,7,4.0,4.0,97,0.07,,---,0.13,VWS V14.01,2013-02-24 06:45:00,
2013-02-24 01:50:00,37.5,36.7,29.80,NE,37,10.0,10.0,97,0.07,,---,0.13,VWS V14.01,2013-02-24 06:50:00,
2013-02-24 01:55:00,37.5,36.7,29.80,ENE,58,10.0,14.0,97,0.07,,---,0.14,VWS V14.01,2013-02-24 06:55:00,
2013-02-24 02:00:00,37.3,36.5,29.80,NE,37,6.0,6.0,97,0.07,,---,0.15,VWS V14.01,2013-02-24 07:00:00,
2013-02-24 02:05:00,37.4,36.6,29.79,NNE,24,11.0,11.0,97,0.06,,---,0.15,VWS V14.01,2013-02-24 07:05:00,
2013-02-24 02:10:00,37.6,36.8,29.78,NE,46,6.0,11.0,97,0.07,,---,0.16,VWS V14.01,2013-02-24 07:10:00,
2013-02-24 02:15:00,37.7,36.9,29.78,NE,49,8.0,11.0,97,0.08,,---,0.17,VWS V14.01,2013-02-24 07:15:00,
2013-02-24 02:20:00,37.7,36.9,29.78,NE,48,6.0,9.0,97,0.07,,---,0.17,VWS V14.01,2013-02-24 07:20:00,
2013-02-24 02:25:00,37.7,36.9,29.77,ENE,73,4.0,5.0,97,0.08,,---,0.18,VWS V14.01,2013-02-24 07:25:00,
2013-02-24 02:30:00,37.6,36.8,29.77,NNE,24,11.0,11.0,97,0.07,,---,0.18,VWS V14.01,2013-02-24 07:30:00,
2013-02-24 02:35:00,37.5,36.7,29.77,NE,56,10.0,10.0,97,0.07,,---,0.19,VWS V14.01,2013-02-24 07:35:00,
2013-02-24 02:40:00,37.4,36.6,29.76,NE,35,3.0,6.0,97,0.08,,---,0.20,VWS V14.01,2013-02-24 07:40:00,
2013-02-24 02:45:00,37.3,36.5,29.75,NE,46,9.0,9.0,97,0.07,,---,0.20,VWS V14.01,2013-02-24 07:45:00,
2013-02-24 02:50:00,37.3,36.5,29.75,NNE,29,5.0,6.0,97,0.08,,---,0.21,VWS V14.01,2013-02-24 07:50:00,
2013-02-24 02:55:00,37.3,36.5,29.75,NNE,24,10.0,12.0,97,0.07,,---,0.21,VWS V14.01,2013-02-24 07:55:00,
2013-02-24 03:00:00,37.4,36.6,29.75,NE,38,7.0,10.0,97,0.07,,---,0.22,VWS V14.01,2013-02-24 08:00:00,
2013-02-24 03:05:00,37.5,37.0,29.75,NNE,24,10.0,12.0,98,0.08,,---,0.23,VWS V14.01,2013-02-24 08:05:00,
2013-02-24 03:10:00,37.5,37.0,29.74,ENE,61,4.0,10.0,98,0.07,,---,0.23,VWS V14.01,2013-02-24 08:10:00,
2013-02-24 03:15:00,37.6,37.1,29.74,ENE,61,13.0,13.0,98,0.07,,---,0.24,VWS V14.01,2013-02-24 08:15:00,
2013-02-24 03:20:00,37.7,37.2,29.74,ENE,63,7.0,7.0,98,0.07,,---,0.24,VWS V14.01,2013-02-24 08:20:00,
2013-02-24 03:25:00,37.8,37.3,29.74,NNE,19,9.0,9.0,98,0.07,,---,0.25,VWS V14.01,2013-02-24 08:25:00,
2013-02-24 03:30:00,37.8,37.3,29.74,NNE,24,7.0,7.0,98,0.08,,---,0.26,VWS V14.01,2013-02-24 08:30:00,
2013-02-24 03:35:00,37.8,37.3,29.73,NNW,338,4.0,8.0,98,0.07,,---,0.26,VWS V14.01,2013-02-24 08:35:00,
2013-02-24 03:40:00,37.9,37.4,29.73,NNE,24,7.0,7.0,98,0.07,,---,0.27,VWS V14.01,2013-02-24 08:40:00,
2013-02-24 03:45:00,37.9,37.4,29.73,NE,52,6.0,9.0,98,0.07,,---,0.27,VWS V14.01,2013-02-24 08:45:00,
2013-02-24 03:50:00,37.9,37.4,29.73,ENE,64,11.0,11.0,98,0.07,,---,0.28,VWS V14.01,2013-02-24 08:50:00,
2013-02-24 03:55:00,37.9,37.4,29.72,NNE,24,5.0,12.0,98,0.07,,---,0.28,VWS V14.01,2013-02-24 08:55:00,
2013-02-24 04:00:00,38.0,37.5,29.72,North,7,5.0,6.0,98,0.07,,---,0.29,VWS V14.01,2013-02-24 09:00:00,
2013-02-24 04:05:00,38.1,37.6,29.72,NNE,33,9.0,9.0,98,0.07,,---,0.30,VWS V14.01,2013-02-24 09:05:00,
2013-02-24 04:10:00,38.1,37.6,29.72,NNE,19,7.0,11.0,98,0.07,,---,0.30,VWS V14.01,2013-02-24 09:10:00,
2013-02-24 04:15:00,38.0,37.5,29.72,ENE,69,3.0,11.0,98,0.07,,---,0.31,VWS V14.01,2013-02-24 09:15:00,
2013-02-24 04:20:00,38.1,37.6,29.72,ENE,64,6.0,9.0,98,0.08,,---,0.32,VWS V14.01,2013-02-24 09:20:00,
2013-02-24 04:25:00,38.1,37.6,29.72,NE,37,10.0,10.0,98,0.07,,---,0.32,VWS V14.01,2013-02-24 09:25:00,
2013-02-24 04:30:00,38.2,37.7,29.72,ENE,69,9.0,10.0,98,0.07,,---,0.33,VWS V14.01,2013-02-24 09:30:00,
2013-02-24 04:35:00,38.3,37.8,29.72,NNE,19,5.0,11.0,98,0.08,,---,0.34,VWS V14.01,2013-02-24 09:35:00,
2013-02-24 04:40:00,38.3,37.8,29.71,NNE,29,5.0,12.0,98,0.08,,---,0.34,VWS V14.01,2013-02-24 09:40:00,
2013-02-24 04:45:00,38.4,37.9,29.71,ENE,61,11.0,13.0,98,0.08,,---,0.35,VWS V14.01,2013-02-24 09:45:00,
2013-02-24 04:50:00,38.5,38.0,29.71,NE,55,6.0,13.0,98,0.08,,---,0.35,VWS V14.01,2013-02-24 09:50:00,
2013-02-24 04:51:00,38.5,38.0,29.71,North,8,6.0,11.0,98,0.08,,---,0.36,VWS V14.01,2013-02-24 09:51:00,
2013-02-24 04:55:00,38.6,38.1,29.71,NE,42,5.0,13.0,98,0.08,,---,0.36,VWS V14.01,2013-02-24 09:55:00,
2013-02-24 04:56:00,38.7,38.2,29.71,NE,45,11.0,12.0,98,0.08,,---,0.36,VWS V14.01,2013-02-24 09:56:00,
2013-02-24 05:00:00,38.7,38.2,29.71,ENE,61,3.0,14.0,98,0.09,,---,0.37,VWS V14.01,2013-02-24 10:00:00,
2013-02-24 05:01:00,38.8,38.3,29.71,ENE,75,3.0,14.0,98,0.08,,---,0.37,VWS V14.01,2013-02-24 10:01:00,
2013-02-24 05:05:00,38.8,38.3,29.70,ENE,68,12.0,14.0,98,0.08,,---,0.37,VWS V14.01,2013-02-24 10:05:00,
2013-02-24 05:06:00,38.8,38.3,29.70,ENE,74,4.0,12.0,98,0.07,,---,0.37,VWS V14.01,2013-02-24 10:06:00,
2013-02-24 05:10:00,38.8,38.3,29.70,ENE,57,2.0,12.0,98,0.08,,---,0.38,VWS V14.01,2013-02-24 10:10:00,
2013-02-24 05:11:00,38.7,38.2,29.70,NE,46,7.0,10.0,98,0.08,,---,0.38,VWS V14.01,2013-02-24 10:11:00,
2013-02-24 05:15:00,38.6,38.1,29.70,NE,52,4.0,10.0,98,0.08,,---,0.38,VWS V14.01,2013-02-24 10:15:00,
2013-02-24 05:16:00,38.6,38.1,29.70,North,353,4.0,9.0,98,0.07,,---,0.38,VWS V14.01,2013-02-24 10:16:00,
2013-02-24 05:20:00,38.5,38.0,29.70,NE,42,2.0,11.0,98,0.08,,---,0.39,VWS V14.01,2013-02-24 10:20:00,
2013-02-24 05:21:00,38.5,38.0,29.70,NE,34,7.0,9.0,98,0.07,,---,0.39,VWS V14.01,2013-02-24 10:21:00,
2013-02-24 05:25:00,38.6,38.1,29.70,NNE,33,5.0,13.0,98,0.08,,---,0.40,VWS V14.01,2013-02-24 10:25:00,
2013-02-24 05:26:00,38.6,38.1,29.70,NNE,14,5.0,7.0,98,0.08,,---,0.40,VWS V14.01,2013-02-24 10:26:00,
2013-02-24 05:30:00,38.7,38.2,29.70,NNE,24,7.0,9.0,98,0.08,,---,0.40,VWS V14.01,2013-02-24 10:30:00,
2013-02-24 05:31:00,38.7,38.2,29.71,NE,54,5.0,7.0,98,0.07,,---,0.40,VWS V14.01,2013-02-24 10:31:00,
2013-02-24 05:35:00,38.7,38.2,29.71,NNE,19,4.0,7.0,98,0.08,,---,0.41,VWS V14.01,2013-02-24 10:35:00,
2013-02-24 05:36:00,38.7,38.2,29.71,NW,323,5.0,9.0,98,0.08,,---,0.41,VWS V14.01,2013-02-24 10:36:00,
2013-02-24 05:40:00,38.7,38.2,29.72,North,10,2.0,9.0,98,0.08,,---,0.41,VWS V14.01,2013-02-24 10:40:00,
2013-02-24 05:41:00,38.7,38.2,29.72,NNE,24,4.0,6.0,98,0.07,,---,0.41,VWS V14.01,2013-02-24 10:41:00,
2013-02-24 05:45:00,38.7,38.2,29.72,North,3,2.0,6.0,98,0.08,,---,0.42,VWS V14.01,2013-02-24 10:45:00,
2013-02-24 05:46:00,38.7,38.2,29.72,North,2,1.0,3.0,98,0.07,,---,0.42,VWS V14.01,2013-02-24 10:46:00,
2013-02-24 05:50:00,38.8,38.3,29.73,North,4,3.0,7.0,98,0.07,,---,0.42,VWS V14.01,2013-02-24 10:50:00,
2013-02-24 05:51:00,38.9,38.4,29.73,North,4,3.0,3.0,98,0.07,,---,0.42,VWS V14.01,2013-02-24 10:51:00,
2013-02-24 05:55:00,38.8,38.3,29.73,North,6,0.0,6.0,98,0.08,,---,0.43,VWS V14.01,2013-02-24 10:55:00,
2013-02-24 05:56:00,38.8,38.3,29.73,North,6,2.0,2.0,98,0.07,,---,0.43,VWS V14.01,2013-02-24 10:56:00,
2013-02-24 06:00:00,38.9,38.4,29.73,North,357,3.0,3.0,98,0.07,,---,0.44,VWS V14.01,2013-02-24 11:00:00,
2013-02-24 06:05:00,38.9,38.4,29.73,North,5,1.0,1.0,98,0.07,,---,0.44,VWS V14.01,2013-02-24 11:05:00,
2013-02-24 06:10:00,39.1,38.6,29.73,North,5,3.0,3.0,98,0.07,,---,0.45,VWS V14.01,2013-02-24 11:10:00,
2013-02-24 06:15:00,39.3,38.8,29.73,ENE,62,3.0,5.0,98,0.07,,---,0.45,VWS V14.01,2013-02-24 11:15:00,
2013-02-24 06:20:00,39.2,38.7,29.73,NNE,12,3.0,5.0,98,0.07,,---,0.46,VWS V14.01,2013-02-24 11:20:00,
2013-02-24 06:25:00,39.1,38.6,29.73,NNE,19,1.0,3.0,98,0.06,,---,0.46,VWS V14.01,2013-02-24 11:25:00,
2013-02-24 06:30:00,39.1,38.6,29.72,ENE,60,4.0,7.0,98,0.07,,---,0.47,VWS V14.01,2013-02-24 11:30:00,
2013-02-24 06:35:00,39.1,38.6,29.72,NNE,29,3.0,9.0,98,0.07,,---,0.48,VWS V14.01,2013-02-24 11:35:00,
2013-02-24 06:40:00,39.2,38.7,29.71,NE,54,5.0,6.0,98,0.07,,---,0.48,VWS V14.01,2013-02-24 11:40:00,
2013-02-24 06:45:00,39.3,38.8,29.70,NE,55,6.0,8.0,98,0.07,,---,0.49,VWS V14.01,2013-02-24 11:45:00,
2013-02-24 06:50:00,39.4,38.9,29.70,NNE,24,10.0,11.0,98,0.07,,---,0.49,VWS V14.01,2013-02-24 11:50:00,
2013-02-24 06:55:00,39.6,39.1,29.69,NE,37,4.0,9.0,98,0.07,,---,0.50,VWS V14.01,2013-02-24 11:55:00,
2013-02-24 07:00:00,39.7,39.2,29.70,NNE,24,4.0,6.0,98,0.06,,---,0.50,VWS V14.01,2013-02-24 12:00:00,
2013-02-24 07:05:00,39.8,39.3,29.70,NNE,29,10.0,11.0,98,0.07,,---,0.51,VWS V14.01,2013-02-24 12:05:00,
2013-02-24 07:10:00,40.0,39.5,29.70,East,86,2.0,7.0,98,0.06,,---,0.51,VWS V14.01,2013-02-24 12:10:00,
2013-02-24 07:15:00,40.1,39.6,29.71,NE,43,5.0,10.0,98,0.07,,---,0.52,VWS V14.01,2013-02-24 12:15:00,
2013-02-24 07:20:00,40.2,39.7,29.71,ENE,61,6.0,10.0,98,0.07,,---,0.53,VWS V14.01,2013-02-24 12:20:00,
2013-02-24 07:25:00,40.1,39.6,29.71,NE,40,6.0,11.0,98,0.07,,---,0.53,VWS V14.01,2013-02-24 12:25:00,
2013-02-24 07:30:00,40.1,39.6,29.70,NNE,29,5.0,9.0,98,0.07,,---,0.54,VWS V14.01,2013-02-24 12:30:00,
2013-02-24 07:35:00,40.3,39.8,29.70,NE,50,9.0,13.0,98,0.07,,---,0.54,VWS V14.01,2013-02-24 12:35:00,
2013-02-24 07:36:00,40.3,39.8,29.69,NNE,24,9.0,11.0,98,0.06,,---,0.54,VWS V14.01,2013-02-24 12:36:00,
2013-02-24 07:40:00,40.3,39.8,29.69,NE,41,10.0,13.0,98,0.07,,---,0.55,VWS V14.01,2013-02-24 12:40:00,
2013-02-24 07:41:00,40.3,39.8,29.69,NE,56,6.0,10.0,98,0.07,,---,0.55,VWS V14.01,2013-02-24 12:41:00,
2013-02-24 07:45:00,40.3,39.8,29.70,ENE,57,10.0,11.0,98,0.07,,---,0.55,VWS V14.01,2013-02-24 12:45:00,
2013-02-24 07:46:00,40.3,39.8,29.70,NE,50,6.0,11.0,98,0.06,,---,0.55,VWS V14.01,2013-02-24 12:46:00,
2013-02-24 07:50:00,40.4,39.9,29.69,NE,38,8.0,12.0,98,0.07,,---,0.56,VWS V14.01,2013-02-24 12:50:00,
2013-02-24 07:51:00,40.4,39.9,29.69,ENE,58,6.0,9.0,98,0.07,,---,0.56,VWS V14.01,2013-02-24 12:51:00,
2013-02-24 07:55:00,40.4,39.9,29.69,NE,36,10.0,11.0,98,0.07,,---,0.56,VWS V14.01,2013-02-24 12:55:00,
2013-02-24 07:56:00,40.4,39.9,29.69,NNE,33,10.0,10.0,98,0.06,,---,0.56,VWS V14.01,2013-02-24 12:56:00,
2013-02-24 08:00:00,40.4,39.9,29.69,NE,36,3.0,11.0,98,0.07,,---,0.57,VWS V14.01,2013-02-24 13:00:00,
2013-02-24 08:01:00,40.5,40.0,29.68,ENE,68,4.0,4.0,98,0.07,,---,0.57,VWS V14.01,2013-02-24 13:01:00,
2013-02-24 08:05:00,40.4,39.9,29.68,NNW,343,5.0,12.0,98,0.07,,---,0.57,VWS V14.01,2013-02-24 13:05:00,
2013-02-24 08:06:00,40.4,39.9,29.68,ENE,62,3.0,11.0,98,0.06,,---,0.57,VWS V14.01,2013-02-24 13:06:00,
2013-02-24 08:10:00,40.4,39.9,29.67,NNE,29,7.0,13.0,98,0.07,,---,0.58,VWS V14.01,2013-02-24 13:10:00,
2013-02-24 08:11:00,40.4,39.9,29.67,NNW,348,9.0,11.0,98,0.07,,---,0.58,VWS V14.01,2013-02-24 13:11:00,
2013-02-24 08:15:00,40.6,40.1,29.67,NNE,19,9.0,17.0,98,0.07,,---,0.58,VWS V14.01,2013-02-24 13:15:00,
2013-02-24 08:16:00,40.6,40.1,29.67,NNE,15,12.0,13.0,98,0.06,,---,0.58,VWS V14.01,2013-02-24 13:16:00,
2013-02-24 08:20:00,40.7,40.2,29.66,NNE,24,10.0,14.0,98,0.07,,---,0.59,VWS V14.01,2013-02-24 13:20:00,
2013-02-24 08:21:00,40.8,40.3,29.66,ENE,61,9.0,12.0,98,0.06,,---,0.59,VWS V14.01,2013-02-24 13:21:00,
2013-02-24 08:25:00,40.9,40.4,29.65,NE,47,7.0,14.0,98,0.06,,---,0.59,VWS V14.01,2013-02-24 13:25:00,
2013-02-24 08:26:00,40.9,40.4,29.65,NE,40,14.0,16.0,98,0.06,,---,0.59,VWS V14.01,2013-02-24 13:26:00,
2013-02-24 08:30:00,40.9,40.4,29.65,NE,52,16.0,16.0,98,0.07,,---,0.60,VWS V14.01,2013-02-24 13:30:00,
2013-02-24 08:31:00,40.9,40.4,29.65,NE,46,10.0,16.0,98,0.06,,---,0.60,VWS V14.01,2013-02-24 13:31:00,
2013-02-24 08:35:00,41.1,40.6,29.65,NE,55,9.0,16.0,98,0.06,,---,0.60,VWS V14.01,2013-02-24 13:35:00,
2013-02-24 08:36:00,41.1,40.6,29.65,NNE,12,11.0,11.0,98,0.06,,---,0.60,VWS V14.01,2013-02-24 13:36:00,
2013-02-24 08:40:00,41.1,40.6,29.66,North,1,11.0,14.0,98,0.07,,---,0.61,VWS V14.01,2013-02-24 13:40:00,
2013-02-24 08:41:00,41.1,40.6,29.66,North,8,5.0,11.0,98,0.06,,---,0.61,VWS V14.01,2013-02-24 13:41:00,
2013-02-24 08:45:00,41.1,40.6,29.66,North,11,6.0,13.0,98,0.06,,---,0.61,VWS V14.01,2013-02-24 13:45:00,
2013-02-24 08:46:00,41.1,40.6,29.66,NNE,15,1.0,6.0,98,0.06,,---,0.61,VWS V14.01,2013-02-24 13:46:00,
2013-02-24 08:50:00,41.1,40.6,29.67,NNE,33,11.0,13.0,98,0.06,,---,0.61,VWS V14.01,2013-02-24 13:50:00,
2013-02-24 08:51:00,41.1,40.6,29.67,NE,53,3.0,13.0,98,0.05,,---,0.61,VWS V14.01,2013-02-24 13:51:00,
2013-02-24 08:55:00,41.2,40.7,29.67,North,353,5.0,13.0,98,0.06,,---,0.62,VWS V14.01,2013-02-24 13:55:00,
2013-02-24 08:56:00,41.1,40.6,29.67,NNE,29,7.0,14.0,98,0.06,,---,0.62,VWS V14.01,2013-02-24 13:56:00,
2013-02-24 09:00:00,41.2,40.7,29.67,ENE,64,5.0,14.0,98,0.06,,---,0.62,VWS V14.01,2013-02-24 14:00:00,
2013-02-24 09:01:00,41.2,40.7,29.67,NE,48,11.0,12.0,98,0.05,,---,0.62,VWS V14.01,2013-02-24 14:01:00,
2013-02-24 09:05:00,41.3,40.8,29.66,ENE,58,10.0,15.0,98,0.06,,---,0.63,VWS V14.01,2013-02-24 14:05:00,
2013-02-24 09:06:00,41.3,40.8,29.66,NE,53,11.0,15.0,98,0.06,,---,0.63,VWS V14.01,2013-02-24 14:06:00,
2013-02-24 09:10:00,41.4,40.9,29.66,NNE,12,10.0,15.0,98,0.06,,---,0.63,VWS V14.01,2013-02-24 14:10:00,
2013-02-24 09:11:00,41.4,40.9,29.65,NNW,345,7.0,14.0,98,0.05,,---,0.63,VWS V14.01,2013-02-24 14:11:00,
2013-02-24 09:15:00,41.5,41.0,29.64,NE,34,6.0,19.0,98,0.06,,---,0.64,VWS V14.01,2013-02-24 14:15:00,
2013-02-24 09:16:00,41.5,41.0,29.64,North,3,6.0,12.0,98,0.06,,---,0.64,VWS V14.01,2013-02-24 14:16:00,
2013-02-24 09:20:00,41.5,41.0,29.65,NE,38,8.0,15.0,98,0.06,,---,0.64,VWS V14.01,2013-02-24 14:20:00,
2013-02-24 09:21:00,41.5,41.0,29.65,NNW,346,11.0,12.0,98,0.05,,---,0.64,VWS V14.01,2013-02-24 14:21:00,
2013-02-24 09:25:00,41.6,41.1,29.65,North,1,9.0,16.0,98,0.05,,---,0.64,VWS V14.01,2013-02-24 14:25:00,
2013-02-24 09:26:00,41.6,41.1,29.65,WNW,299,6.0,10.0,98,0.05,,---,0.64,VWS V14.01,2013-02-24 14:26:00,
2013-02-24 09:30:00,41.6,40.8,29.65,North,10,3.0,15.0,97,0.06,,---,0.65,VWS V14.01,2013-02-24 14:30:00,
2013-02-24 09:31:00,41.6,40.8,29.65,NE,53,10.0,15.0,97,0.05,,---,0.65,VWS V14.01,2013-02-24 14:31:00,
2013-02-24 09:35:00,41.6,40.8,29.64,NE,52,7.0,15.0,97,0.05,,---,0.65,VWS V14.01,2013-02-24 14:35:00,
2013-02-24 09:36:00,41.6,40.8,29.64,North,2,12.0,13.0,97,0.05,,---,0.65,VWS V14.01,2013-02-24 14:36:00,
2013-02-24 09:40:00,41.7,40.9,29.65,NNE,24,5.0,14.0,97,0.05,,---,0.65,VWS V14.01,2013-02-24 14:40:00,
2013-02-24 09:41:00,41.7,40.9,29.65,ENE,68,2.0,7.0,97,0.05,,---,0.66,VWS V14.01,2013-02-24 14:41:00,
2013-02-24 09:45:00,41.6,40.8,29.64,NE,45,4.0,11.0,97,0.05,,---,0.66,VWS V14.01,2013-02-24 14:45:00,
2013-02-24 09:46:00,41.5,40.7,29.65,NE,45,6.0,11.0,97,0.05,,---,0.66,VWS V14.01,2013-02-24 14:46:00,
2013-02-24 09:50:00,41.5,40.7,29.65,North,9,5.0,15.0,97,0.05,,---,0.66,VWS V14.01,2013-02-24 14:50:00,
2013-02-24 09:51:00,41.5,40.7,29.64,North,360,12.0,12.0,97,0.05,,---,0.66,VWS V14.01,2013-02-24 14:51:00,
2013-02-24 09:55:00,41.5,40.7,29.64,NNW,346,3.0,15.0,97,0.06,,---,0.67,VWS V14.01,2013-02-24 14:55:00,
2013-02-24 09:56:00,41.5,40.7,29.64,NNW,339,4.0,10.0,97,0.05,,---,0.67,VWS V14.01,2013-02-24 14:56:00,
2013-02-24 10:00:00,41.5,40.7,29.63,NE,39,11.0,15.0,97,0.05,,---,0.67,VWS V14.01,2013-02-24 15:00:00,
2013-02-24 10:01:00,41.5,40.7,29.63,NNE,19,8.0,13.0,97,0.05,,---,0.67,VWS V14.01,2013-02-24 15:01:00,
2013-02-24 10:05:00,41.6,41.1,29.63,NE,54,10.0,18.0,98,0.05,,---,0.67,VWS V14.01,2013-02-24 15:05:00,
2013-02-24 10:06:00,41.7,41.2,29.63,NNW,342,11.0,18.0,98,0.05,,---,0.68,VWS V14.01,2013-02-24 15:06:00,
2013-02-24 10:10:00,41.6,40.8,29.63,North,357,2.0,18.0,97,0.05,,---,0.68,VWS V14.01,2013-02-24 15:10:00,
2013-02-24 10:11:00,41.5,40.7,29.64,NNW,335,1.0,8.0,97,0.05,,---,0.68,VWS V14.01,2013-02-24 15:11:00,
2013-02-24 10:15:00,41.1,40.3,29.64,NE,53,2.0,10.0,97,0.05,,---,0.68,VWS V14.01,2013-02-24 15:15:00,
2013-02-24 10:16:00,41.1,40.3,29.64,North,6,9.0,9.0,97,0.04,,---,0.68,VWS V14.01,2013-02-24 15:16:00,
2013-02-24 10:20:00,41.0,40.2,29.65,NNE,19,2.0,11.0,97,0.05,,---,0.69,VWS V14.01,2013-02-24 15:20:00,
2013-02-24 10:21:00,41.0,40.2,29.65,NNW,333,5.0,6.0,97,0.05,,---,0.69,VWS V14.01,2013-02-24 15:21:00,
2013-02-24 10:25:00,40.9,40.1,29.65,NNE,24,4.0,9.0,97,0.05,,---,0.69,VWS V14.01,2013-02-24 15:25:00,
2013-02-24 10:26:00,40.9,40.1,29.65,NNW,347,2.0,11.0,97,0.05,,---,0.69,VWS V14.01,2013-02-24 15:26:00,
2013-02-24 10:30:00,40.9,40.1,29.64,NNE,19,4.0,11.0,97,0.05,,---,0.69,VWS V14.01,2013-02-24 15:30:00,
2013-02-24 10:31:00,40.9,40.1,29.64,NNW,337,5.0,11.0,97,0.04,,---,0.69,VWS V14.01,2013-02-24 15:31:00,
2013-02-24 10:35:00,41.0,40.5,29.64,North,358,7.0,11.0,98,0.05,,---,0.70,VWS V14.01,2013-02-24 15:35:00,
2013-02-24 10:36:00,41.0,40.5,29.64,NE,46,3.0,10.0,98,0.05,,---,0.70,VWS V14.01,2013-02-24 15:36:00,
2013-02-24 10:40:00,41.1,40.6,29.64,North,4,4.0,12.0,98,0.05,,---,0.70,VWS V14.01,2013-02-24 15:40:00,
2013-02-24 10:41:00,41.2,40.7,29.64,NW,320,6.0,7.0,98,0.05,,---,0.70,VWS V14.01,2013-02-24 15:41:00,
2013-02-24 10:45:00,41.3,40.8,29.64,NNW,333,6.0,11.0,98,0.05,,---,0.70,VWS V14.01,2013-02-24 15:45:00,
2013-02-24 10:46:00,41.3,40.8,29.64,NNW,343,5.0,9.0,98,0.04,,---,0.70,VWS V14.01,2013-02-24 15:46:00,
2013-02-24 10:50:00,41.3,40.8,29.64,NNE,19,5.0,9.0,98,0.05,,---,0.71,VWS V14.01,2013-02-24 15:50:00,
2013-02-24 10:51:00,41.3,40.8,29.64,North,2,1.0,7.0,98,0.05,,---,0.71,VWS V14.01,2013-02-24 15:51:00,
2013-02-24 10:55:00,41.3,40.8,29.64,NE,35,2.0,10.0,98,0.05,,---,0.71,VWS V14.01,2013-02-24 15:55:00,
2013-02-24 10:56:00,41.3,40.8,29.64,North,2,5.0,5.0,98,0.04,,---,0.71,VWS V14.01,2013-02-24 15:56:00,
2013-02-24 11:00:00,41.2,40.7,29.64,North,356,6.0,13.0,98,0.04,,---,0.71,VWS V14.01,2013-02-24 16:00:00,
2013-02-24 11:01:00,41.1,40.6,29.64,NNE,19,5.0,7.0,98,0.04,,---,0.71,VWS V14.01,2013-02-24 16:01:00,
2013-02-24 11:05:00,41.1,40.6,29.64,NNW,343,4.0,10.0,98,0.05,,---,0.72,VWS V14.01,2013-02-24 16:05:00,
2013-02-24 11:06:00,41.1,40.6,29.64,NNE,14,2.0,7.0,98,0.05,,---,0.72,VWS V14.01,2013-02-24 16:06:00,
2013-02-24 11:10:00,41.1,40.6,29.63,NNW,345,7.0,10.0,98,0.05,,---,0.72,VWS V14.01,2013-02-24 16:10:00,
2013-02-24 11:11:00,41.1,40.6,29.63,NW,321,5.0,11.0,98,0.04,,---,0.72,VWS V14.01,2013-02-24 16:11:00,
2013-02-24 11:15:00,41.1,40.6,29.64,North,352,3.0,13.0,98,0.04,,---,0.72,VWS V14.01,2013-02-24 16:15:00,
2013-02-24 11:16:00,41.1,40.6,29.64,North,350,5.0,11.0,98,0.04,,---,0.72,VWS V14.01,2013-02-24 16:16:00,
2013-02-24 11:20:00,41.1,40.6,29.64,North,357,5.0,12.0,98,0.05,,---,0.73,VWS V14.01,2013-02-24 16:20:00,
2013-02-24 11:21:00,41.1,40.6,29.64,NW,321,6.0,11.0,98,0.04,,---,0.73,VWS V14.01,2013-02-24 16:21:00,
2013-02-24 11:25:00,41.1,40.6,29.64,North,353,10.0,13.0,98,0.04,,---,0.73,VWS V14.01,2013-02-24 16:25:00,
2013-02-24 11:26:00,41.0,40.5,29.64,North,350,4.0,12.0,98,0.04,,---,0.73,VWS V14.01,2013-02-24 16:26:00,
2013-02-24 11:30:00,41.0,40.5,29.64,NNW,335,4.0,12.0,98,0.05,,---,0.74,VWS V14.01,2013-02-24 16:30:00,
2013-02-24 11:31:00,41.0,40.5,29.64,NNE,24,6.0,10.0,98,0.05,,---,0.74,VWS V14.01,2013-02-24 16:31:00,
2013-02-24 11:35:00,40.9,40.1,29.64,North,351,6.0,12.0,97,0.05,,---,0.74,VWS V14.01,2013-02-24 16:35:00,
2013-02-24 11:36:00,40.9,40.1,29.64,NNW,330,6.0,14.0,97,0.04,,---,0.74,VWS V14.01,2013-02-24 16:36:00,
2013-02-24 11:40:00,40.9,40.1,29.64,NNW,330,11.0,14.0,97,0.04,,---,0.74,VWS V14.01,2013-02-24 16:40:00,
2013-02-24 11:41:00,40.8,40.0,29.64,NNW,328,5.0,11.0,97,0.04,,---,0.74,VWS V14.01,2013-02-24 16:41:00,
2013-02-24 11:45:00,40.8,40.0,29.64,NNW,338,12.0,13.0,97,0.05,,---,0.75,VWS V14.01,2013-02-24 16:45:00,
2013-02-24 11:46:00,40.8,40.0,29.64,NW,326,14.0,16.0,97,0.05,,---,0.75,VWS V14.01,2013-02-24 16:46:00,
2013-02-24 11:50:00,40.9,40.1,29.64,North,351,7.0,16.0,97,0.05,,---,0.75,VWS V14.01,2013-02-24 16:50:00,
2013-02-24 11:51:00,40.9,40.1,29.64,North,355,6.0,10.0,97,0.04,,---,0.75,VWS V14.01,2013-02-24 16:51:00,
2013-02-24 11:55:00,40.9,40.1,29.64,NNW,333,9.0,19.0,97,0.05,,---,0.76,VWS V14.01,2013-02-24 16:55:00,
2013-02-24 11:56:00,40.9,40.1,29.64,NNW,330,6.0,9.0,97,0.05,,---,0.76,VWS V14.01,2013-02-24 16:56:00,
2013-02-24 12:00:00,40.7,39.7,29.64,NNW,334,5.0,16.0,96,0.05,,---,0.76,VWS V14.01,2013-02-24 17:00:00,
2013-02-24 12:01:00,40.7,39.9,29.64,North,349,10.0,11.0,97,0.05,,---,0.76,VWS V14.01,2013-02-24 17:01:00,
2013-02-24 12:05:00,40.7,39.9,29.64,NW,323,14.0,22.0,97,0.05,,---,0.76,VWS V14.01,2013-02-24 17:05:00,
2013-02-24 12:06:00,40.7,39.9,29.65,WNW,297,10.0,14.0,97,0.05,,---,0.77,VWS V14.01,2013-02-24 17:06:00,
2013-02-24 12:10:00,40.7,39.9,29.65,North,9,10.0,16.0,97,0.05,,---,0.77,VWS V14.01,2013-02-24 17:10:00,
2013-02-24 12:11:00,40.7,39.9,29.64,NW,320,11.0,11.0,97,0.05,,---,0.77,VWS V14.01,2013-02-24 17:11:00,
2013-02-24 12:15:00,40.5,39.7,29.64,NW,318,12.0,20.0,97,0.05,,---,0.77,VWS V14.01,2013-02-24 17:15:00,
2013-02-24 12:16:00,40.5,39.7,29.65,NNW,328,10.0,16.0,97,0.05,,---,0.77,VWS V14.01,2013-02-24 17:16:00,
2013-02-24 12:20:00,40.4,39.3,29.64,NW,326,8.0,17.0,96,0.06,,---,0.78,VWS V14.01,2013-02-24 17:20:00,
2013-02-24 12:21:00,40.4,39.3,29.65,NW,324,7.0,13.0,96,0.05,,---,0.78,VWS V14.01,2013-02-24 17:21:00,
2013-02-24 12:25:00,40.3,39.5,29.65,WNW,284,7.0,16.0,97,0.05,,---,0.78,VWS V14.01,2013-02-24 17:25:00,
2013-02-24 12:26:00,40.3,39.5,29.65,NNW,327,7.0,12.0,97,0.05,,---,0.78,VWS V14.01,2013-02-24 17:26:00,
2013-02-24 12:30:00,40.2,39.2,29.65,WNW,296,7.0,19.0,96,0.06,,---,0.79,VWS V14.01,2013-02-24 17:30:00,
2013-02-24 12:31:00,40.2,39.2,29.65,NNW,331,10.0,12.0,96,0.05,,---,0.79,VWS V14.01,2013-02-24 17:31:00,
2013-02-24 12:35:00,40.0,39.0,29.64,NNW,346,8.0,17.0,96,0.05,,---,0.79,VWS V14.01,2013-02-24 17:35:00,
2013-02-24 12:36:00,40.0,39.0,29.64,NW,310,9.0,15.0,96,0.05,,---,0.79,VWS V14.01,2013-02-24 17:36:00,
2013-02-24 12:40:00,40.0,39.2,29.65,WNW,285,8.0,16.0,97,0.06,,---,0.80,VWS V14.01,2013-02-24 17:40:00,
2013-02-24 12:41:00,39.9,39.1,29.65,NNW,331,11.0,14.0,97,0.06,,---,0.80,VWS V14.01,2013-02-24 17:41:00,
2013-02-24 12:45:00,39.9,39.1,29.65,NW,317,8.0,18.0,97,0.06,,---,0.80,VWS V14.01,2013-02-24 17:45:00,
2013-02-24 12:46:00,39.9,39.1,29.65,West,278,10.0,20.0,97,0.05,,---,0.80,VWS V14.01,2013-02-24 17:46:00,
2013-02-24 12:50:00,39.8,38.8,29.65,NNW,334,11.0,20.0,96,0.06,,---,0.81,VWS V14.01,2013-02-24 17:50:00,
2013-02-24 12:51:00,39.7,38.7,29.65,WNW,303,6.0,15.0,96,0.06,,---,0.81,VWS V14.01,2013-02-24 17:51:00,
2013-02-24 12:55:00,39.3,38.3,29.65,NW,313,7.0,19.0,96,0.06,,---,0.81,VWS V14.01,2013-02-24 17:55:00,
2013-02-24 12:56:00,39.2,38.2,29.65,WNW,301,11.0,20.0,96,0.05,,---,0.81,VWS V14.01,2013-02-24 17:56:00,
2013-02-24 13:00:00,38.8,37.8,29.65,WNW,297,6.0,20.0,96,0.06,,---,0.82,VWS V14.01,2013-02-24 18:00:00,
2013-02-24 13:01:00,38.7,37.7,29.64,NW,322,7.0,13.0,96,0.06,,---,0.82,VWS V14.01,2013-02-24 18:01:00,
2013-02-24 13:05:00,38.4,37.4,29.64,NW,323,9.0,15.0,96,0.06,,---,0.82,VWS V14.01,2013-02-24 18:05:00,
2013-02-24 13:06:00,38.4,37.4,29.64,NW,310,3.0,11.0,96,0.06,,---,0.82,VWS V14.01,2013-02-24 18:06:00,
2013-02-24 13:10:00,38.2,37.2,29.64,NW,309,9.0,16.0,96,0.07,,---,0.83,VWS V14.01,2013-02-24 18:10:00,
2013-02-24 13:11:00,38.1,37.1,29.64,NNW,338,12.0,17.0,96,0.06,,---,0.83,VWS V14.01,2013-02-24 18:11:00,
2013-02-24 13:15:00,37.8,36.8,29.64,NNW,343,7.0,17.0,96,0.06,,---,0.83,VWS V14.01,2013-02-24 18:15:00,
2013-02-24 13:16:00,37.7,36.7,29.64,NW,316,6.0,18.0,96,0.07,,---,0.84,VWS V14.01,2013-02-24 18:16:00,
2013-02-24 13:20:00,37.6,36.6,29.63,NNW,337,7.0,18.0,96,0.07,,---,0.84,VWS V14.01,2013-02-24 18:20:00,
2013-02-24 13:21:00,37.6,36.6,29.63,NNE,24,7.0,16.0,96,0.06,,---,0.84,VWS V14.01,2013-02-24 18:21:00,
2013-02-24 13:25:00,37.7,36.7,29.63,NNE,33,14.0,16.0,96,0.07,,---,0.85,VWS V14.01,2013-02-24 18:25:00,
2013-02-24 13:26:00,37.7,36.9,29.62,North,8,6.0,14.0,97,0.07,,---,0.85,VWS V14.01,2013-02-24 18:26:00,
2013-02-24 13:30:00,37.7,36.7,29.62,NW,319,10.0,15.0,96,0.07,,---,0.85,VWS V14.01,2013-02-24 18:30:00,
2013-02-24 13:31:00,37.7,36.7,29.62,NE,35,6.0,10.0,96,0.06,,---,0.85,VWS V14.01,2013-02-24 18:31:00,
2013-02-24 13:35:00,37.4,36.4,29.63,NNW,327,10.0,14.0,96,0.07,,---,0.86,VWS V14.01,2013-02-24 18:35:00,
2013-02-24 13:36:00,37.4,36.4,29.63,North,358,10.0,17.0,96,0.07,,---,0.86,VWS V14.01,2013-02-24 18:36:00,
2013-02-24 13:40:00,37.1,36.1,29.63,NW,310,13.0,17.0,96,0.07,,---,0.86,VWS V14.01,2013-02-24 18:40:00,
2013-02-24 13:41:00,37.1,36.1,29.63,WNW,288,12.0,20.0,96,0.06,,---,0.86,VWS V14.01,2013-02-24 18:41:00,
2013-02-24 13:45:00,36.7,35.7,29.63,NW,316,15.0,20.0,96,0.07,,---,0.87,VWS V14.01,2013-02-24 18:45:00,
2013-02-24 13:46:00,36.6,35.6,29.63,NNW,338,6.0,20.0,96,0.07,,---,0.87,VWS V14.01,2013-02-24 18:46:00,
2013-02-24 13:50:00,36.5,35.5,29.63,North,349,9.0,20.0,96,0.07,,---,0.87,VWS V14.01,2013-02-24 18:50:00,
2013-02-24 13:51:00,36.6,35.6,29.63,NNW,341,7.0,14.0,96,0.07,,---,0.88,VWS V14.01,2013-02-24 18:51:00,
2013-02-24 13:55:00,36.5,35.5,29.63,NNW,338,5.0,19.0,96,0.07,,---,0.88,VWS V14.01,2013-02-24 18:55:00,
2013-02-24 13:56:00,36.5,35.5,29.63,North,353,9.0,16.0,96,0.07,,---,0.88,VWS V14.01,2013-02-24 18:56:00,
2013-02-24 14:00:00,36.7,35.7,29.63,NNW,337,4.0,19.0,96,0.08,,---,0.89,VWS V14.01,2013-02-24 19:00:00,
2013-02-24 14:01:00,36.7,35.7,29.63,NNW,343,2.0,12.0,96,0.07,,---,0.89,VWS V14.01,2013-02-24 19:01:00,
2013-02-24 14:05:00,36.7,35.7,29.63,North,360,7.0,15.0,96,0.07,,---,0.89,VWS V14.01,2013-02-24 19:05:00,
2013-02-24 14:06:00,36.8,35.8,29.63,NW,326,10.0,11.0,96,0.07,,---,0.89,VWS V14.01,2013-02-24 19:06:00,
2013-02-24 14:10:00,36.9,35.9,29.63,NNW,337,12.0,14.0,96,0.08,,---,0.90,VWS V14.01,2013-02-24 19:10:00,
2013-02-24 14:11:00,36.9,35.9,29.63,NW,325,10.0,12.0,96,0.07,,---,0.90,VWS V14.01,2013-02-24 19:11:00,
2013-02-24 14:15:00,37.1,36.3,29.63,North,352,4.0,12.0,97,0.07,,---,0.90,VWS V14.01,2013-02-24 19:15:00,
2013-02-24 14:16:00,37.2,36.4,29.63,WNW,299,10.0,12.0,97,0.07,,---,0.90,VWS V14.01,2013-02-24 19:16:00,
2013-02-24 14:20:00,37.5,36.7,29.63,NNW,348,4.0,12.0,97,0.08,,---,0.91,VWS V14.01,2013-02-24 19:20:00,
2013-02-24 14:21:00,37.6,36.8,29.64,North,351,7.0,10.0,97,0.07,,---,0.91,VWS V14.01,2013-02-24 19:21:00,
2013-02-24 14:25:00,38.0,37.0,29.63,NNE,15,6.0,19.0,96,0.07,,---,0.91,VWS V14.01,2013-02-24 19:25:00,
2013-02-24 14:26:00,38.0,37.2,29.64,NNW,336,9.0,9.0,97,0.06,,---,0.91,VWS V14.01,2013-02-24 19:26:00,
2013-02-24 14:30:00,38.2,37.2,29.64,North,4,12.0,14.0,96,0.07,,---,0.92,VWS V14.01,2013-02-24 19:30:00,
2013-02-24 14:31:00,38.3,37.3,29.64,NW,311,10.0,16.0,96,0.07,,---,0.92,VWS V14.01,2013-02-24 19:31:00,
2013-02-24 14:35:00,38.4,37.1,29.64,NNW,343,12.0,16.0,95,0.07,,---,0.92,VWS V14.01,2013-02-24 19:35:00,
2013-02-24 14:36:00,38.4,37.1,29.65,North,357,7.0,14.0,95,0.06,,---,0.92,VWS V14.01,2013-02-24 19:36:00,
2013-02-24 14:40:00,38.4,37.1,29.65,NNW,331,7.0,19.0,95,0.07,,---,0.93,VWS V14.01,2013-02-24 19:40:00,
2013-02-24 14:41:00,38.4,37.1,29.65,NNW,348,12.0,18.0,95,0.07,,---,0.93,VWS V14.01,2013-02-24 19:41:00,
2013-02-24 14:45:00,38.4,36.6,29.65,North,353,12.0,21.0,93,0.07,,---,0.93,VWS V14.01,2013-02-24 19:45:00,
2013-02-24 14:46:00,38.3,36.5,29.65,NNW,347,13.0,17.0,93,0.06,,---,0.93,VWS V14.01,2013-02-24 19:46:00,
2013-02-24 14:50:00,38.3,36.5,29.65,North,351,18.0,19.0,93,0.07,,---,0.94,VWS V14.01,2013-02-24 19:50:00,
2013-02-24 14:51:00,38.3,36.5,29.65,North,2,9.0,18.0,93,0.07,,---,0.94,VWS V14.01,2013-02-24 19:51:00,
2013-02-24 14:55:00,38.3,36.5,29.65,North,355,17.0,20.0,93,0.08,,---,0.95,VWS V14.01,2013-02-24 19:55:00,
2013-02-24 14:56:00,38.3,36.5,29.65,NE,37,5.0,17.0,93,0.07,,---,0.95,VWS V14.01,2013-02-24 19:56:00,
2013-02-24 15:00:00,38.3,36.5,29.66,NNE,19,6.0,17.0,93,0.07,,---,0.95,VWS V14.01,2013-02-24 20:00:00,
2013-02-24 15:01:00,38.3,36.5,29.66,NW,316,15.0,15.0,93,0.06,,---,0.95,VWS V14.01,2013-02-24 20:01:00,
2013-02-24 15:05:00,38.1,36.3,29.66,NW,326,11.0,17.0,93,0.07,,---,0.96,VWS V14.01,2013-02-24 20:05:00,
2013-02-24 15:06:00,38.0,36.2,29.67,North,8,10.0,15.0,93,0.07,,---,0.96,VWS V14.01,2013-02-24 20:06:00,
2013-02-24 15:10:00,37.6,35.5,29.67,NW,324,13.0,16.0,92,0.08,,---,0.97,VWS V14.01,2013-02-24 20:10:00,
2013-02-24 15:11:00,37.5,35.4,29.67,NNW,328,11.0,16.0,92,0.07,,---,0.97,VWS V14.01,2013-02-24 20:11:00,
2013-02-24 15:15:00,37.2,35.1,29.67,NNW,345,11.0,19.0,92,0.07,,---,0.97,VWS V14.01,2013-02-24 20:15:00,
2013-02-24 15:16:00,37.1,35.0,29.67,NNE,19,5.0,18.0,92,0.07,,---,0.97,VWS V14.01,2013-02-24 20:16:00,
2013-02-24 15:20:00,36.9,35.1,29.67,North,357,12.0,18.0,93,0.08,,---,0.98,VWS V14.01,2013-02-24 20:20:00,
2013-02-24 15:21:00,36.9,34.8,29.67,NNW,343,9.0,14.0,92,0.07,,---,0.98,VWS V14.01,2013-02-24 20:21:00,
2013-02-24 15:25:00,36.8,35.0,29.67,NNW,329,8.0,19.0,93,0.07,,---,0.98,VWS V14.01,2013-02-24 20:25:00,
2013-02-24 15:26:00,36.7,34.9,29.67,NNW,328,12.0,16.0,93,0.07,,---,0.98,VWS V14.01,2013-02-24 20:26:00,
2013-02-24 15:30:00,36.5,34.7,29.67,North,351,8.0,16.0,93,0.08,,---,0.99,VWS V14.01,2013-02-24 20:30:00,
2013-02-24 15:31:00,36.5,34.7,29.68,NNW,345,11.0,11.0,93,0.07,,---,0.99,VWS V14.01,2013-02-24 20:31:00,
2013-02-24 15:35:00,36.3,34.5,29.68,North,353,9.0,16.0,93,0.07,,---,0.99,VWS V14.01,2013-02-24 20:35:00,
2013-02-24 15:36:00,36.3,34.5,29.68,NNE,13,16.0,16.0,93,0.07,,---,0.99,VWS V14.01,2013-02-24 20:36:00,
2013-02-24 15:40:00,36.2,34.4,29.68,North,2,7.0,18.0,93,0.08,,---,1.00,VWS V14.01,2013-02-24 20:40:00,
2013-02-24 15:41:00,36.2,34.4,29.68,NNW,338,9.0,13.0,93,0.07,,---,1.00,VWS V14.01,2013-02-24 20:41:00,
2013-02-24 15:45:00,36.1,34.3,29.68,WNW,296,11.0,19.0,93,0.07,,---,1.00,VWS V14.01,2013-02-24 20:45:00,
2013-02-24 15:46:00,36.1,34.3,29.68,NNW,347,7.0,15.0,93,0.07,,---,1.00,VWS V14.01,2013-02-24 20:46:00,
2013-02-24 15:50:00,36.1,34.3,29.68,NNW,328,5.0,19.0,93,0.08,,---,1.01,VWS V14.01,2013-02-24 20:50:00,
2013-02-24 15:51:00,36.0,34.2,29.68,North,353,9.0,16.0,93,0.07,,---,1.01,VWS V14.01,2013-02-24 20:51:00,
2013-02-24 15:55:00,36.0,34.2,29.68,NW,323,16.0,18.0,93,0.07,,---,1.01,VWS V14.01,2013-02-24 20:55:00,
2013-02-24 15:56:00,36.0,34.2,29.68,NW,324,17.0,17.0,93,0.06,,---,1.01,VWS V14.01,2013-02-24 20:56:00,
2013-02-24 16:00:00,35.9,34.1,29.68,NW,318,9.0,17.0,93,0.07,,---,1.02,VWS V14.01,2013-02-24 21:00:00,
2013-02-24 16:01:00,35.9,34.1,29.68,NNW,346,11.0,13.0,93,0.07,,---,1.02,VWS V14.01,2013-02-24 21:01:00,
2013-02-24 16:05:00,35.9,34.1,29.68,NNW,335,12.0,17.0,93,0.07,,---,1.02,VWS V14.01,2013-02-24 21:05:00,
2013-02-24 16:06:00,35.9,34.1,29.68,North,360,11.0,12.0,93,0.06,,---,1.02,VWS V14.01,2013-02-24 21:06:00,
2013-02-24 16:10:00,35.9,34.1,29.69,NNW,331,9.0,18.0,93,0.07,,---,1.03,VWS V14.01,2013-02-24 21:10:00,
2013-02-24 16:11:00,35.9,34.1,29.69,NNW,348,13.0,20.0,93,0.06,,---,1.03,VWS V14.01,2013-02-24 21:11:00,
2013-02-24 16:15:00,35.8,34.0,29.69,NNW,335,10.0,20.0,93,0.06,,---,1.03,VWS V14.01,2013-02-24 21:15:00,
2013-02-24 16:16:00,35.8,34.0,29.69,NNW,343,8.0,14.0,93,0.06,,---,1.03,VWS V14.01,2013-02-24 21:16:00,
2013-02-24 16:20:00,35.8,34.0,29.69,North,357,6.0,16.0,93,0.07,,---,1.04,VWS V14.01,2013-02-24 21:20:00,
2013-02-24 16:21:00,35.8,34.0,29.69,NNW,338,15.0,16.0,93,0.06,,---,1.04,VWS V14.01,2013-02-24 21:21:00,
2013-02-24 16:25:00,35.6,33.8,29.69,NNW,339,7.0,16.0,93,0.06,,---,1.04,VWS V14.01,2013-02-24 21:25:00,
2013-02-24 16:26:00,35.6,33.8,29.69,NW,319,15.0,15.0,93,0.06,,---,1.04,VWS V14.01,2013-02-24 21:26:00,
2013-02-24 16:30:00,35.4,33.8,29.69,North,8,6.0,15.0,94,0.06,,---,1.04,VWS V14.01,2013-02-24 21:30:00,
2013-02-24 16:31:00,35.3,33.8,29.69,NW,308,2.0,12.0,94,0.06,,---,1.05,VWS V14.01,2013-02-24 21:31:00,
2013-02-24 16:35:00,35.3,33.8,29.69,North,6,10.0,13.0,94,0.06,,---,1.05,VWS V14.01,2013-02-24 21:35:00,
2013-02-24 16:36:00,35.2,33.7,29.70,NW,320,5.0,10.0,94,0.06,,---,1.05,VWS V14.01,2013-02-24 21:36:00,
2013-02-24 16:40:00,35.2,33.7,29.70,NW,319,10.0,23.0,94,0.06,,---,1.05,VWS V14.01,2013-02-24 21:40:00,
2013-02-24 16:41:00,35.2,33.7,29.70,NW,318,7.0,12.0,94,0.05,,---,1.05,VWS V14.01,2013-02-24 21:41:00,
2013-02-24 16:45:00,35.2,33.7,29.70,NW,311,11.0,17.0,94,0.05,,---,1.05,VWS V14.01,2013-02-24 21:45:00,
2013-02-24 16:46:00,35.2,33.9,29.70,NW,308,5.0,13.0,95,0.06,,---,1.06,VWS V14.01,2013-02-24 21:46:00,
2013-02-24 16:50:00,35.3,34.0,29.70,NNW,328,7.0,18.0,95,0.06,,---,1.06,VWS V14.01,2013-02-24 21:50:00,
2013-02-24 16:51:00,35.3,33.8,29.70,NNW,333,6.0,12.0,94,0.05,,---,1.06,VWS V14.01,2013-02-24 21:51:00,
2013-02-24 16:55:00,35.3,34.0,29.70,NW,312,6.0,15.0,95,0.05,,---,1.06,VWS V14.01,2013-02-24 21:55:00,
2013-02-24 16:56:00,35.3,33.8,29.70,NNW,328,5.0,14.0,94,0.05,,---,1.06,VWS V14.01,2013-02-24 21:56:00,
2013-02-24 17:00:00,35.3,33.8,29.70,NW,317,9.0,14.0,94,0.06,,---,1.07,VWS V14.01,2013-02-24 22:00:00,
2013-02-24 17:01:00,35.3,33.8,29.70,NW,316,3.0,14.0,94,0.05,,---,1.07,VWS V14.01,2013-02-24 22:01:00,
2013-02-24 17:05:00,35.3,33.8,29.70,NW,316,12.0,16.0,94,0.05,,---,1.07,VWS V14.01,2013-02-24 22:05:00,
2013-02-24 17:06:00,35.3,33.8,29.70,NNW,334,11.0,15.0,94,0.05,,---,1.07,VWS V14.01,2013-02-24 22:06:00,
2013-02-24 17:10:00,35.3,33.8,29.71,North,351,7.0,15.0,94,0.05,,---,1.07,VWS V14.01,2013-02-24 22:10:00,
2013-02-24 17:11:00,35.3,33.8,29.71,NNW,344,10.0,15.0,94,0.04,,---,1.07,VWS V14.01,2013-02-24 22:11:00,
2013-02-24 17:15:00,35.3,33.8,29.71,NW,323,7.0,15.0,94,0.04,,---,1.07,VWS V14.01,2013-02-24 22:15:00,
2013-02-24 17:16:00,35.3,33.8,29.71,North,349,7.0,12.0,94,0.04,,---,1.07,VWS V14.01,2013-02-24 22:16:00,
2013-02-24 17:20:00,35.3,33.8,29.72,NW,312,6.0,18.0,94,0.05,,---,1.08,VWS V14.01,2013-02-24 22:20:00,
2013-02-24 17:21:00,35.3,33.8,29.72,North,349,8.0,13.0,94,0.04,,---,1.08,VWS V14.01,2013-02-24 22:21:00,
2013-02-24 17:25:00,35.3,33.8,29.72,NW,315,15.0,16.0,94,0.04,,---,1.08,VWS V14.01,2013-02-24 22:25:00,
2013-02-24 17:26:00,35.2,33.7,29.72,NNW,341,8.0,17.0,94,0.04,,---,1.08,VWS V14.01,2013-02-24 22:26:00,
2013-02-24 17:30:00,35.2,33.7,29.72,North,353,8.0,17.0,94,0.04,,---,1.08,VWS V14.01,2013-02-24 22:30:00,
2013-02-24 17:31:00,35.2,33.7,29.72,NNW,334,11.0,13.0,94,0.04,,---,1.08,VWS V14.01,2013-02-24 22:31:00,
2013-02-24 17:35:00,35.2,33.7,29.72,North,354,2.0,13.0,94,0.04,,---,1.08,VWS V14.01,2013-02-24 22:35:00,
2013-02-24 17:36:00,35.2,33.7,29.73,NNW,334,5.0,9.0,94,0.03,,---,1.08,VWS V14.01,2013-02-24 22:36:00,
2013-02-24 17:40:00,35.1,33.5,29.72,NNW,333,5.0,18.0,94,0.04,,---,1.09,VWS V14.01,2013-02-24 22:40:00,
2013-02-24 17:41:00,35.1,33.5,29.73,North,11,7.0,12.0,94,0.04,,---,1.09,VWS V14.01,2013-02-24 22:41:00,
2013-02-24 17:45:00,35.0,33.5,29.73,NW,312,8.0,17.0,94,0.04,,---,1.09,VWS V14.01,2013-02-24 22:45:00,
2013-02-24 17:46:00,35.0,33.5,29.73,NNW,338,9.0,16.0,94,0.04,,---,1.09,VWS V14.01,2013-02-24 22:46:00,
2013-02-24 17:50:00,34.9,33.3,29.73,NNW,330,16.0,16.0,94,0.04,,---,1.09,VWS V14.01,2013-02-24 22:50:00,
2013-02-24 17:51:00,34.9,33.3,29.73,NNW,339,7.0,16.0,94,0.03,,---,1.09,VWS V14.01,2013-02-24 22:51:00,
2013-02-24 17:55:00,34.8,33.5,29.73,North,351,14.0,17.0,95,0.03,,---,1.09,VWS V14.01,2013-02-24 22:55:00,
2013-02-24 17:56:00,34.8,33.5,29.74,NNW,330,14.0,14.0,95,0.03,,---,1.09,VWS V14.01,2013-02-24 22:56:00,
2013-02-24 18:00:00,34.7,33.4,29.74,NW,315,4.0,19.0,95,0.03,,---,1.09,VWS V14.01,2013-02-24 23:00:00,
2013-02-24 18:01:00,34.7,33.4,29.74,NNW,333,14.0,14.0,95,0.02,,---,1.09,VWS V14.01,2013-02-24 23:01:00,
2013-02-24 18:05:00,34.6,33.3,29.74,North,358,7.0,14.0,95,0.02,,---,1.09,VWS V14.01,2013-02-24 23:05:00,
2013-02-24 18:06:00,34.6,33.3,29.75,NNW,342,2.0,7.0,95,0.02,,---,1.09,VWS V14.01,2013-02-24 23:06:00,
2013-02-24 18:10:00,34.6,33.3,29.75,NW,304,9.0,14.0,95,0.02,,---,1.09,VWS V14.01,2013-02-24 23:10:00,
2013-02-24 18:11:00,34.6,33.3,29.75,WNW,295,6.0,10.0,95,0.02,,---,1.09,VWS V14.01,2013-02-24 23:11:00,
2013-02-24 18:15:00,34.5,33.2,29.75,NW,325,11.0,14.0,95,0.02,,---,1.09,VWS V14.01,2013-02-24 23:15:00,
2013-02-24 18:16:00,34.4,33.1,29.75,NW,323,3.0,14.0,95,0.02,,---,1.09,VWS V14.01,2013-02-24 23:16:00,
2013-02-24 18:20:00,34.4,33.1,29.76,NW,307,5.0,15.0,95,0.02,,---,1.09,VWS V14.01,2013-02-24 23:20:00,
2013-02-24 18:21:00,34.4,33.1,29.76,NW,320,4.0,15.0,95,0.01,,---,1.09,VWS V14.01,2013-02-24 23:21:00,
2013-02-24 18:25:00,34.3,33.3,29.76,NW,324,9.0,15.0,96,0.01,,---,1.09,VWS V14.01,2013-02-24 23:25:00,
2013-02-24 18:26:00,34.3,33.3,29.76,NW,326,11.0,12.0,96,0.01,,---,1.09,VWS V14.01,2013-02-24 23:26:00,
2013-02-24 18:30:00,34.3,33.3,29.76,NW,319,5.0,14.0,96,0.01,,---,1.09,VWS V14.01,2013-02-24 23:30:00,
2013-02-24 18:31:00,34.3,33.3,29.76,NNE,12,5.0,12.0,96,0.01,,---,1.09,VWS V14.01,2013-02-24 23:31:00,
2013-02-24 18:35:00,34.2,33.2,29.76,NNW,337,6.0,13.0,96,0.01,,---,1.09,VWS V14.01,2013-02-24 23:35:00,
2013-02-24 18:36:00,34.2,33.2,29.76,NNW,333,7.0,14.0,96,0.01,,---,1.09,VWS V14.01,2013-02-24 23:36:00,
2013-02-24 18:40:00,34.2,33.2,29.76,NNE,24,7.0,14.0,96,0.01,,---,1.09,VWS V14.01,2013-02-24 23:40:00,
2013-02-24 18:41:00,34.1,33.1,29.76,NW,314,5.0,13.0,96,0.00,,---,1.09,VWS V14.01,2013-02-24 23:41:00,
2013-02-24 18:45:00,34.1,33.1,29.76,NNW,334,7.0,13.0,96,0.00,,---,1.09,VWS V14.01,2013-02-24 23:45:00,
2013-02-24 18:46:00,34.1,32.8,29.76,North,357,4.0,11.0,95,0.00,,---,1.09,VWS V14.01,2013-02-24 23:46:00,
2013-02-24 18:50:00,34.1,32.8,29.77,North,351,4.0,12.0,95,0.00,,---,1.09,VWS V14.01,2013-02-24 23:50:00,
2013-02-24 18:51:00,34.1,32.8,29.77,North,4,10.0,13.0,95,0.00,,---,1.09,VWS V14.01,2013-02-24 23:51:00,
2013-02-24 18:55:00,34.0,33.0,29.77,NW,319,10.0,15.0,96,0.01,,---,1.10,VWS V14.01,2013-02-24 23:55:00,
2013-02-24 19:00:00,34.0,32.7,29.77,NW,315,7.0,13.0,95,0.01,,---,1.10,VWS V14.01,2013-02-25 00:00:00,
2013-02-24 19:05:00,33.9,32.9,29.78,NW,315,7.0,14.0,96,0.01,,---,1.10,VWS V14.01,2013-02-25 00:05:00,
2013-02-24 19:10:00,33.9,32.9,29.78,NNW,338,8.0,15.0,96,0.01,,---,1.10,VWS V14.01,2013-02-25 00:10:00,
2013-02-24 19:15:00,33.9,32.9,29.78,NNW,338,8.0,14.0,96,0.01,,---,1.10,VWS V14.01,2013-02-25 00:15:00,
2013-02-24 19:20:00,33.9,32.9,29.79,NNW,338,8.0,13.0,96,0.01,,---,1.10,VWS V14.01,2013-02-25 00:20:00,
2013-02-24 19:25:00,33.8,32.8,29.79,NW,315,6.0,15.0,96,0.01,,---,1.10,VWS V14.01,2013-02-25 00:25:00,
2013-02-24 19:30:00,33.8,32.8,29.80,NW,315,8.0,15.0,96,0.01,,---,1.10,VWS V14.01,2013-02-25 00:30:00,
2013-02-24 19:35:00,33.7,32.7,29.80,NW,315,8.0,14.0,96,0.01,,---,1.10,VWS V14.01,2013-02-25 00:35:00,
2013-02-24 19:40:00,33.7,32.7,29.80,NW,315,8.0,14.0,96,0.01,,---,1.10,VWS V14.01,2013-02-25 00:40:00,
2013-02-24 19:50:00,33.6,32.6,29.80,NW,315,8.0,13.0,96,0.01,,---,1.10,VWS V14.01,2013-02-25 00:50:00,
2013-02-24 19:55:00,33.6,32.6,29.81,NW,315,8.0,16.0,96,0.01,,---,1.10,VWS V14.01,2013-02-25 00:55:00,
2013-02-24 20:00:00,33.6,32.3,29.81,NW,315,8.0,13.0,95,0.00,,---,1.10,VWS V14.01,2013-02-25 01:00:00,
2013-02-24 20:05:00,33.6,32.3,29.81,NW,315,8.0,15.0,95,0.00,,---,1.10,VWS V14.01,2013-02-25 01:05:00,
2013-02-24 20:10:00,33.5,32.2,29.82,NNW,338,8.0,14.0,95,0.00,,---,1.10,VWS V14.01,2013-02-25 01:10:00,
2013-02-24 20:15:00,33.5,32.2,29.82,NW,315,7.0,13.0,95,0.00,,---,1.10,VWS V14.01,2013-02-25 01:15:00,
2013-02-24 20:20:00,33.4,32.1,29.82,NW,315,6.0,13.0,95,0.00,,---,1.10,VWS V14.01,2013-02-25 01:20:00,
2013-02-24 20:25:00,33.4,32.4,29.82,NW,315,7.0,12.0,96,0.00,,---,1.10,VWS V14.01,2013-02-25 01:25:00,
2013-02-24 20:38:00,33.3,32.3,29.82,NW,315,7.0,12.0,96,0.00,,---,1.10,VWS V14.01,2013-02-25 01:38:00,
2013-02-24 20:43:00,33.0,32.0,29.83,NNW,331,5.0,12.0,96,0.00,,---,1.10,VWS V14.01,2013-02-25 01:43:00,
2013-02-24 20:49:00,32.9,31.9,29.83,NW,323,10.0,11.0,96,0.00,,---,1.10,VWS V14.01,2013-02-25 01:49:00,
2013-02-24 20:54:00,32.7,31.7,29.83,North,351,7.0,13.0,96,0.00,,---,1.10,VWS V14.01,2013-02-25 01:54:00,
2013-02-24 20:59:00,32.6,31.6,29.84,WNW,303,5.0,17.0,96,0.01,,---,1.11,VWS V14.01,2013-02-25 01:59:00,
2013-02-24 21:04:00,32.6,31.6,29.84,WNW,297,9.0,18.0,96,0.01,,---,1.11,VWS V14.01,2013-02-25 02:04:00,
2013-02-24 21:09:00,32.5,31.5,29.84,NW,305,9.0,17.0,96,0.01,,---,1.11,VWS V14.01,2013-02-25 02:09:00,
2013-02-24 21:14:00,32.5,31.2,29.84,NW,306,4.0,9.0,95,0.01,,---,1.11,VWS V14.01,2013-02-25 02:14:00,
2013-02-24 21:19:00,32.4,31.1,29.84,NW,307,10.0,12.0,95,0.01,,---,1.11,VWS V14.01,2013-02-25 02:19:00,
2013-02-24 21:24:00,32.4,31.1,29.84,NW,311,7.0,14.0,95,0.01,,---,1.11,VWS V14.01,2013-02-25 02:24:00,
2013-02-24 21:29:00,32.3,31.0,29.84,NNW,337,11.0,14.0,95,0.01,,---,1.11,VWS V14.01,2013-02-25 02:29:00,
2013-02-24 21:34:00,32.2,31.2,29.84,NNW,339,9.0,19.0,96,0.01,,---,1.11,VWS V14.01,2013-02-25 02:34:00,
2013-02-24 21:39:00,32.1,31.1,29.84,NNW,333,12.0,15.0,96,0.01,,---,1.11,VWS V14.01,2013-02-25 02:39:00,
2013-02-24 21:44:00,32.1,31.1,29.85,NW,312,10.0,15.0,96,0.01,,---,1.11,VWS V14.01,2013-02-25 02:44:00,
2013-02-24 21:49:00,32.0,31.0,29.85,NW,307,8.0,18.0,96,0.01,,---,1.11,VWS V14.01,2013-02-25 02:49:00,
2013-02-24 21:54:00,32.0,31.0,29.85,NW,314,5.0,13.0,96,0.01,,---,1.11,VWS V14.01,2013-02-25 02:54:00,
2013-02-24 21:59:00,31.9,30.9,29.86,NNW,327,6.0,15.0,96,0.01,,---,1.11,VWS V14.01,2013-02-25 02:59:00,
2013-02-24 22:04:00,31.8,30.8,29.85,WNW,303,7.0,13.0,96,0.00,,---,1.11,VWS V14.01,2013-02-25 03:04:00,
2013-02-24 22:09:00,31.7,30.7,29.86,NNW,330,8.0,17.0,96,0.00,,---,1.11,VWS V14.01,2013-02-25 03:09:00,
2013-02-24 22:14:00,31.6,30.6,29.86,WNW,299,13.0,14.0,96,0.00,,---,1.11,VWS V14.01,2013-02-25 03:14:00,
2013-02-24 22:19:00,31.5,30.5,29.86,NW,304,6.0,11.0,96,0.00,,---,1.11,VWS V14.01,2013-02-25 03:19:00,
2013-02-24 22:24:00,31.5,30.8,29.86,NW,314,5.0,16.0,97,0.00,,---,1.11,VWS V14.01,2013-02-25 03:24:00,
2013-02-24 22:29:00,31.5,30.8,29.87,NW,305,9.0,10.0,97,0.00,,---,1.11,VWS V14.01,2013-02-25 03:29:00,
2013-02-24 22:34:00,31.5,30.8,29.86,NW,323,9.0,13.0,97,0.00,,---,1.11,VWS V14.01,2013-02-25 03:34:00,
2013-02-24 22:39:00,31.4,30.6,29.87,NW,315,9.0,13.0,97,0.00,,---,1.11,VWS V14.01,2013-02-25 03:39:00,
2013-02-24 22:44:00,31.4,30.6,29.87,NNW,335,8.0,12.0,97,0.00,,---,1.11,VWS V14.01,2013-02-25 03:44:00,
2013-02-24 22:49:00,31.4,30.6,29.87,NW,322,7.0,12.0,97,0.00,,---,1.11,VWS V14.01,2013-02-25 03:49:00,
2013-02-24 22:54:00,31.3,30.5,29.87,NW,320,7.0,13.0,97,0.00,,---,1.11,VWS V14.01,2013-02-25 03:54:00,
2013-02-24 22:59:00,31.2,30.5,29.87,NW,322,6.0,13.0,97,0.00,,---,1.11,VWS V14.01,2013-02-25 03:59:00,
2013-02-24 23:04:00,31.2,30.5,29.87,NW,314,8.0,14.0,97,0.00,,---,1.11,VWS V14.01,2013-02-25 04:04:00,
2013-02-24 23:09:00,31.2,30.5,29.87,NW,319,6.0,12.0,97,0.00,,---,1.11,VWS V14.01,2013-02-25 04:09:00,
2013-02-24 23:14:00,31.2,30.5,29.88,NW,320,4.0,12.0,97,0.00,,---,1.11,VWS V14.01,2013-02-25 04:14:00,
2013-02-24 23:19:00,31.2,30.5,29.88,NW,319,5.0,12.0,97,0.00,,---,1.11,VWS V14.01,2013-02-25 04:19:00,
2013-02-24 23:24:00,31.2,30.5,29.88,NW,320,5.0,12.0,97,0.00,,---,1.11,VWS V14.01,2013-02-25 04:24:00,
2013-02-24 23:29:00,31.2,30.5,29.88,NW,320,10.0,11.0,97,0.00,,---,1.11,VWS V14.01,2013-02-25 04:29:00,
2013-02-24 23:34:00,31.1,30.4,29.88,NW,319,6.0,11.0,97,0.00,,---,1.11,VWS V14.01,2013-02-25 04:34:00,
2013-02-24 23:39:00,31.1,30.4,29.88,NW,319,4.0,9.0,97,0.00,,---,1.11,VWS V14.01,2013-02-25 04:39:00,
2013-02-24 23:44:00,31.1,30.4,29.88,NW,319,8.0,12.0,97,0.00,,---,1.11,VWS V14.01,2013-02-25 04:44:00,
2013-02-24 23:49:00,31.1,30.4,29.89,NW,320,5.0,12.0,97,0.00,,---,1.11,VWS V14.01,2013-02-25 04:49:00,
2013-02-24 23:54:00,31.1,30.4,29.89,NW,319,5.0,14.0,97,0.00,,---,1.11,VWS V14.01,2013-02-25 04:54:00,
2013-02-24 23:59:00,31.1,30.4,29.89,NW,319,7.0,12.0,97,0.00,,---,1.11,VWS V14.01,2013-02-25 04:59:00,